Location: Trébons-de-Luchon
(42.8036°N, 0.5656°E)
Time: 19:29:06
(UTC+02:00)

ISS - Visible Passes

Search period start: 21 May 2026 00:00
Search period end: 31 May 2026 00:00
Orbit: 414 x 424 km, 51.6° (Epoch: 21 May)

Date Brightness Start Highest point End Pass type
(mag) Time Alt. Az. Time Alt. Az. Time Alt. Az.
21 May -2.2 00:14:42 10° WNW 00:16:41 32° WNW 00:16:41 32° WNW visible
21 May -1.7 21:50:25 10° NW 21:53:08 22° NNE 21:55:51 10° ENE visible
21 May -3.9 23:26:57 10° NW 23:30:17 85° NNE 23:30:39 69° ESE visible
22 May -3.3 22:39:16 10° NW 22:42:33 54° NNE 22:44:38 20° E visible
23 May -1.3 00:16:33 10° W 00:17:34 15° W 00:17:34 15° W visible
23 May -2.6 21:51:35 10° NW 21:54:44 37° NNE 21:57:51 10° E visible
23 May -2.8 23:28:26 10° WNW 23:31:30 34° SW 23:31:35 34° SW visible
24 May -3.5 22:40:32 10° WNW 22:43:49 58° SW 22:45:38 23° SE visible
25 May -3.7 21:52:45 10° NW 21:56:05 84° NNE 21:59:25 10° ESE visible
25 May -1.3 23:30:57 10° WSW 23:32:26 12° SW 23:32:40 12° SW visible
26 May -1.9 22:42:16 10° W 22:44:51 21° SW 22:46:48 13° S visible
27 May -2.6 21:54:08 10° WNW 21:57:12 34° SW 22:00:15 10° SSE visible
